Location: Bégole
(43.1574°N, 0.3291°E)
Time: 01:44:00
(UTC+00:00)

deb Delta 89 - Pass Details

Date: 24 February 2024
Orbit: 714 x 2021 km, 97.5° (Epoch: 13 April)

Event Time Altitude Azimuth Distance (km) Brightness Sun altitude
Rises 00:56:09 0° 17° (NNE) 5,469 ? -55.2°
Reaches altitude 10° 01:00:13 10° 28° (NNE) 4,482 ? -54.9°
Enters shadow 01:08:21 29° 74° (ENE) 3,133 ? -54.4°
